Tracking 20945 objects as of 8-Jul-2020
HD Live streaming from Space Station
objects crossing your sky now

FENGYUN 1C DEB

Track FENGYUN 1C DEB now!
10-day predictions


NORAD ID: 37057
Int'l Code: 1999-025EER
Perigee: 710.6 km
Apogee: 1,137.7 km
Inclination: 99.1 °
Period: 103.3 minutes
Semi major axis: 7295 km
RCS: 0.0122 m2 (small)
Launch date: May 10, 1999
Source: People's Republic of China (PRC)
Launch site: Taiyaun Space Center, China (TSC)

Note: This is SATELLITE DEBRIS
aabbcc
Your satellite tracking list
Your tracking list is empty




NASA's NSSDC Master Catalog

Two Line Element Set (TLE):
1 37057U 99025EER 20190.36457593  .00000092  00000-0  73100-4 0  9997
2 37057  99.1123 223.9849 0292757 174.2067 186.2604 13.93327565569837
Source of the keplerian elements: AFSPC